KLOM

Details ICAO KLOM (BBX)
Name Wings Field
Region United States
Timezone America/New_York (UTC-5.0)
Plans Departing 4
Arriving 3
Stats Elevation 301 ft / 92 m (AMSL)
Location 40.137564° -75.265131°
Runways 1
Magnetic Variation 12.116° W
Sunrise 2017-02-22 11:45:54 UTC / 2017-02-22 06:45:54 Local
Sunset 2017-02-22 22:46:05 UTC / 2017-02-22 17:46:05 Local
Advertisement - Login to hide

Runways

ID Width Length Bearing (true) Bearing (mag) Surface Threshold Offset Overrun Length
06 75 ft / 23 m 3,703 ft / 1,129 m 53.00° 65.12° Asphalt 177 ft / 54 m 102 ft / 31 m
24 75 ft / 23 m 3,703 ft / 1,129 m 233.01° 245.13° Asphalt 0 ft / 0 m 0 ft / 0 m

Map

Weather

Temperature
Clouds and Precipitation
Forecast for 2017-02-23 00:00 UTC. Updated 12 minutes ago
Winds

METAR

KLOM 221935Z AUTO 00000KT 10SM CLR 13/05 A2990 RMK AO1

TAF

Not found

Frequencies

Recorded 118.92 MHz WX AWOS-3
Clearance 118.55 MHz CLNC DEL
Unicom 123.00 MHz CTAF/UNICOM
Approach 126.85 MHz PHILADELPHIA APP/DEP
Warning: Do not use this data for real-world aviation or navigation. No guarantee of current accuracy is given.